Find Starlink 6223

NORAD ID: 57057 Int'l Des: 2023-088 Owner: SPXS Country: US Constellation: starlink operational
LEOCIRCULAR

当前视图

正在加载3D地球...

About Starlink 6223

Starlink 6223 (NORAD 57057) is a starlink constellation satellite (v1.5) launched Jun 22, 2023 by SPXS of US. It operates in LEO, CIRCULAR orbit with a mass of 305.00 kg.

关于 Starlink 6223

正在加载描述...

即将过境

Passes for default location (London). Set your location on the main map for personalized predictions.

高度历史

Loading altitude history...

两行轨道根数

1 57057C 23088K 26173.88590278 -.00036435 00000+0 -13196-2 0 1739
2 57057 43.0025 236.3212 0001553 279.8388 73.4032 15.27599067 19
Epoch: Jun 22, 2026 • Age: 17 hours

当前状态

高度 482.2 km
速度 7.63 km/s
星下点 7.32°N, 109.34°E
发射日期 Jun 22, 2023
运行时间 3 years
类型 internet

技术详情

分类 Payload
质量 305.00 kg
干质量 290.00 kg
总质量 305.00 kg
长度 0.20 m
直径 2.80 m
跨度 9.00 m
形状 Box + pan
制造商 SPXS
平台类型 Starlink
阶段状态 In Orbit
所有者/国家 SPXS/US

Most Searched